Rechercher aéroport 
image banner adimage banner adimage banner ad
image banner ad

KOAK - Metropolitan Oakland Intl

Situé à Oakland, United States

ICAO - OAK, IATA - OAK

Données fournies par Airmate  

Information générale

Coordonnées: N37°43'17" W122°13'16"
Élévation : 9 feet MSL.
Variation magnétique : 14° East
Voir autres Aéroports à California

Données opérationnelles

Special qualification required
Heure actuelle UTC:
Heure actuelle locale:
Météo
METAR: KOAK 291353Z 33003KT 10SM BKN006 BKN160 BKN200 15/14 A2998 RMK AO2 SLP149 T01500139
TAF: KOAK 291122Z 2912/3018 31005KT P6SM BKN006 FM291600 28005KT P6SM SCT007 FM292100 31014KT P6SM SKC FM300500 32006KT P6SM FEW008 FM300900 31005KT P6SM FEW005 SCT009 FM301700 30008KT P6SM SKC
Voir NOTAMs / SUP AIP / TFR affectant cet aéroport [VIEW]
Fréquences de communication: [VIEW]

Pistes:

Identifiant RWYQFULongueur (ft)Largeur (ft)SurfaceLDA (ft)
15164°337675ASPH
33344°337675ASPH
10L112°5458150ASPH5336
10R112°6213150ASPH6213
12130°10520150ASPH10000
28L292°6213150ASPH6213
28R292°5458150ASPH5458
30310°10520150ASPH10000

Coordonnées de l'aéroport

Adresse: Oakland United States

Autres services d'aviation

Écoles de pilotage

Oakland Flyers, Llc

Oakland Flyers, Llc
info@oaklandflyers.com+1(510)568-3317

Vue satellite de KOAK